AC4VM Weather Reports


Display with metric or nautical units.
time (UTC)temp
F
wind
direction
speed
MPH
gust
MPH
rain 1hr
in
rain 24hr
in
rain mn
in
humidity
%
barometer
mb
20260510023048 60 294 0.0 2.0 0.00 0.00 0.00 89 1011.5
20260510021547 60 294 0.0 0.0 0.00 0.00 0.00 88 1011.5
20260510020048 61 294 0.0 1.0 0.00 0.00 0.00 87 1011.1
20260510014547 62 294 0.0 2.0 0.00 0.00 0.00 87 1010.8
20260510013046 64 294 0.0 2.0 0.00 0.00 0.00 81 1010.5
20260510011546 64 294 0.0 2.0 0.00 0.00 0.00 81 1010.3
20260510010057 65 294 0.0 1.0 0.00 0.00 0.00 82 1010.2
20260510004544 66 294 0.0 1.0 0.00 0.00 0.00 76 1009.9
20260510003054 67 294 0.0 1.0 0.00 0.00 0.00 76 1009.8
20260510001546 69 294 0.0 1.0 0.00 0.00 0.00 71 1009.6
20260510000051 70 294 0.0 2.0 0.00 0.00 0.00 71 1009.5
20260509234556 71 294 0.0 2.0 0.00 0.00 0.00 63 1009.2
20260509233042 72 294 0.0 2.0 0.00 0.00 0.00 60 1009.0
20260509231542 73 295 1.0 4.0 0.00 0.00 0.00 57 1008.9
20260509230042 73 270 2.0 5.0 0.00 0.00 0.00 57 1008.9
20260509224540 73 252 1.0 5.0 0.00 0.00 0.00 58 1008.9
20260509223046 74 295 2.0 6.0 0.00 0.00 0.00 56 1008.7
20260509221540 74 306 3.0 8.0 0.00 0.00 0.00 55 1008.9
20260509220054 74 227 4.0 11.0 0.00 0.00 0.00 58 1009.0
20260509214542 73 254 1.0 5.0 0.00 0.00 0.00 58 1008.9
20260509213041 74 235 2.0 6.0 0.00 0.00 0.00 58 1008.7
20260509211543 74 240 1.0 6.0 0.00 0.00 0.00 57 1008.7
20260509210038 74 258 2.0 4.0 0.00 0.00 0.00 61 1008.4
20260509204542 74 256 3.0 8.0 0.00 0.00 0.00 64 1008.4
20260509203036 75 249 5.0 13.0 0.00 0.00 0.00 60 1008.8
20260509201532 74 253 4.0 15.0 0.00 0.00 0.00 56 1009.0
20260509200037 73 241 3.0 7.0 0.00 0.00 0.00 60 1009.1
20260509194538 74 256 5.0 12.0 0.00 0.00 0.00 61 1009.1
20260509193037 73 75 1.0 4.0 0.00 0.00 0.00 64 1009.1
20260509191528 73 216 4.0 9.0 0.00 0.00 0.00 60 1009.2
20260509190027 72 233 3.0 7.0 0.00 0.00 0.00 63 1009.3
20260509184528 73 226 1.0 7.0 0.00 0.00 0.00 61 1009.2
20260509183029 72 222 2.0 9.0 0.00 0.00 0.00 61 1009.2
20260509181521 72 199 2.0 8.0 0.00 0.00 0.00 64 1009.4
20260509180020 70 233 4.0 11.0 0.00 0.00 0.00 64 1009.5
20260509174518 70 266 5.0 10.0 0.00 0.00 0.00 65 1009.7
20260509173016 72 245 5.0 11.0 0.00 0.00 0.00 68 1009.7
20260509171515 69 264 0.0 4.0 0.00 0.00 0.00 67 1010.1
20260509170014 68 122 1.0 7.0 0.00 0.00 0.00 71 1010.0
20260509164512 68 248 1.0 9.0 0.00 0.00 0.00 69 1010.3
20260509163018 67 250 2.0 10.0 0.00 0.00 0.00 71 1010.3
20260509161512 67 204 2.0 12.0 0.00 0.00 0.00 73 1010.5
20260509160009 67 221 1.0 10.0 0.00 0.00 0.00 74 1010.5
20260509154508 66 142 1.0 5.0 0.00 0.00 0.00 71 1010.6
20260509153009 66 225 1.0 5.0 0.00 0.00 0.00 78 1010.6
20260509151503 63 218 1.0 9.0 0.00 0.00 0.00 78 1010.8
20260509150002 63 120 0.0 4.0 0.00 0.00 0.00 78 1010.7
20260509144613 64 251 2.0 9.0 0.00 0.00 0.00 83 1010.6
20260509143059 62 254 5.0 11.0 0.00 0.00 0.00 81 1010.5
20260509141556 61 281 0.0 3.0 0.00 0.00 0.00 82 1010.4
20260509140107 60 249 1.0 5.0 0.00 0.00 0.00 83 1010.0
20260509134554 60 103 0.0 4.0 0.00 0.00 0.00 83 1010.0
20260509133051 59 260 0.0 5.0 0.00 0.00 0.00 85 1010.2
20260509131555 58 243 1.0 5.0 0.00 0.00 0.00 87 1010.5
20260509130051 58 246 2.0 5.0 0.00 0.00 0.00 88 1010.6
20260509124544 57 85 0.0 2.0 0.00 0.00 0.00 91 1010.2
20260509123041 56 117 0.0 2.0 0.00 0.00 0.00 91 1010.4
20260509121551 54 281 0.0 2.0 0.00 0.00 0.00 91 1010.5
20260509120037 53 341 0.0 0.0 0.00 0.00 0.00 92 1010.4
20260509114534 53 341 0.0 1.0 0.00 0.00 0.00 93 1010.6
20260509113031 52 72 0.0 0.0 0.00 0.00 0.00 93 1010.5
20260509111529 51 73 0.0 0.0 0.00 0.00 0.00 94 1010.1
20260509110028 50 73 0.0 0.0 0.00 0.00 0.00 93 1010.2
20260509104525 50 73 0.0 0.0 0.00 0.00 0.00 93 1010.2
20260509103025 49 73 0.0 0.0 0.00 0.00 0.00 93 1010.4
20260509101525 49 73 0.0 0.0 0.00 0.00 0.00 93 1010.4
20260509100028 49 229 0.0 1.0 0.00 0.00 0.00 94 1010.5
20260509094521 49 0.0 0.0 0.00 0.00 0.00 94 1010.3
20260509093018 48 285 0.0 0.0 0.00 0.00 0.00 94 1010.2
20260509091517 48 285 0.0 0.0 0.00 0.00 0.00 94 1010.3
20260509090017 47 285 0.0 0.0 0.00 0.00 0.00 93 1010.1
20260509084517 47 285 0.0 0.0 0.00 0.00 0.00 93 1010.0
20260509083014 48 285 0.0 0.0 0.00 0.00 0.00 94 1010.0
20260509081513 48 245 0.0 0.0 0.00 0.00 0.00 93 1010.1
20260509080013 47 120 0.0 0.0 0.00 0.00 0.00 93 1009.9
20260509074513 47 275 0.0 0.0 0.00 0.00 0.00 93 1010.0
20260509073010 47 275 0.0 0.0 0.00 0.00 0.00 92 1010.0
20260509071509 47 0.0 0.0 0.00 0.00 0.00 93 1010.0
20260509070004 47 0.0 0.0 0.00 0.00 0.00 93 1010.1
20260509064602 48 257 0.0 0.0 0.00 0.00 0.00 92 1010.2
20260509063106 48 257 0.0 0.0 0.00 0.00 0.00 91 1010.1
20260509061557 49 257 0.0 0.0 0.00 0.00 0.00 92 1010.3
20260509060101 48 257 0.0 0.0 0.00 0.00 0.00 91 1010.3
20260509054555 48 257 0.0 0.0 0.00 0.00 0.00 91 1010.6
20260509053117 49 244 0.0 4.0 0.00 0.00 0.00 90 1010.9
20260509051548 49 253 1.0 4.0 0.00 0.00 0.00 90 1011.0
20260509050046 49 253 0.0 0.0 0.00 0.00 0.00 90 1011.0
20260509044543 49 253 0.0 0.0 0.00 0.00 0.00 89 1011.3
20260509043100 50 253 0.0 0.0 0.00 0.00 0.00 90 1011.5
20260509041554 50 253 0.0 0.0 0.00 0.00 0.00 89 1011.5
20260509040036 50 253 0.0 0.0 0.00 0.00 0.00 89 1011.6
20260509034544 51 253 0.0 0.0 0.00 0.00 0.00 88 1011.8
20260509033035 51 253 0.0 0.0 0.00 0.00 0.00 87 1011.8
20260509031534 51 253 0.0 0.0 0.00 0.00 0.00 87 1011.6
20260509030034 53 253 0.0 0.0 0.00 0.00 0.00 82 1011.7
20260509024535 53 253 0.0 0.0 0.00 0.00 0.00 81 1011.7